sat.trackr.live / text

‹ back to catalog

STARLINK-11350 [DTC]

NORAD 61540 · 2024-184J

PAYLOAD ACTIVE UNKNOWN

§ Identity

Operator
Country
US
Launch date
2024-10-15
Launch site
AFWTR
Launch vehicle
Mass (kg)
RCS (m²)

Purposes: comms

External: N2YO · Heavens-Above · Gunter

§ Orbital elements

Epoch: 2026-09-21T13:04:50.055456Z

Period
91.74 min
Inclination
53.1596°
Eccentricity
0.0000926
Mean motion
15.69703100 rev/d
Perigee alt
359.1 km
Apogee alt
360.4 km
Semi-major
6,737.9 km
B*
4.5524e-6
RAAN
350.3974°
Arg perigee
74.1441°
Mean anomaly
285.9679°
Rev number
11,118

§ Raw data

STARLINK-11350 [DTC]1 61540U 24184J   26264.54502379 -.00000037  00000+0  45524-5 0  99952 61540  53.1596 350.3974 0000926  74.1441 285.9679 15.69703100111186

JSON: /api/v1/satellites/61540 · /tle

For live sub-satellite position, see the globe view (requires WebGL).

§ Visibility from observer

Set your observer location to see the next 7 days of passes ≥ 10°. The values pass through the URL so the page stays shareable.

No JS? Fill the form by hand. The geolocation button needs JavaScript.